When you browse on this site, cookies collect data to enhance your experience and personalize the content and advertising you see.
Visit our Privacy Policy to learn more. By continuing to use the site, you agree to this use of cookies and data.
  • In United Kingdom
  • List of Countries
  • For 7 days
  • Water Temperature
  • Satellite Maps
  • Weather Map
  • Weather Widgets
  • user-avatar
    Login

    Hourly Weather Dumfries

    Today, 20 April, Saturday

    Time Temperature Precipitation Wind Pressure Humidity
    00:00 +11°C° 0 mm 1 mps 770 mmHg 75%
    01:00 +11°C° 0 mm 1 mps 770 mmHg 76%
    02:00 +11°C° 0 mm 1 mps 770 mmHg 76%
    03:00 +11°C° 0 mm 1 mps 769 mmHg 76%
    04:00 +11°C° 0 mm 1 mps 770 mmHg 76%
    05:00 +11°C° 0 mm 1 mps 770 mmHg 77%
    06:00 +11°C° 0 mm 1 mps 770 mmHg 78%
    07:00 +13°C° 0 mm 1 mps 770 mmHg 73%
    08:00 +15°C° 0 mm 2 mps 770 mmHg 68%
    09:00 +16°C° 0 mm 2 mps 770 mmHg 64%
    10:00 +18°C° 0 mm 2 mps 770 mmHg 64%
    11:00 +19°C° 0 mm 3 mps 770 mmHg 63%
    12:00 +20°C° 0 mm 3 mps 769 mmHg 63%
    13:00 +20°C° 0 mm 3 mps 769 mmHg 63%
    14:00 +20°C° 0 mm 3 mps 769 mmHg 63%
    15:00 +20°C° 0 mm 2 mps 769 mmHg 63%
    16:00 +20°C° 0 mm 2 mps 768 mmHg 67%
    17:00 +19°C° 0 mm 2 mps 768 mmHg 71%
    18:00 +19°C° 0 mm 2 mps 768 mmHg 75%
    19:00 +17°C° 0 mm 2 mps 767 mmHg 79%
    20:00 +16°C° 0 mm 1 mps 767 mmHg 84%
    21:00 +14°C° 0 mm 1 mps 767 mmHg 89%
    22:00 +14°C° 0 mm 1 mps 766 mmHg 89%
    23:00 +13°C° 0 mm 1 mps 766 mmHg 88%

    Tomorrow, 21 April, Sunday

    Time Temperature Precipitation Wind Pressure Humidity
    00:00 +13°C° 0 mm 1 mps 765 mmHg 88%
    01:00 +12°C° 0 mm 1 mps 765 mmHg 86%
    02:00 +12°C° 0 mm 2 mps 764 mmHg 83%
    03:00 +10°C° 0 mm 2 mps 763 mmHg 81%
    04:00 +10°C° 0 mm 2 mps 763 mmHg 82%
    05:00 +10°C° 0 mm 2 mps 762 mmHg 82%
    06:00 +12°C° 0 mm 2 mps 762 mmHg 83%
    07:00 +12°C° 0 mm 3 mps 761 mmHg 81%
    08:00 +14°C° 0 mm 4 mps 761 mmHg 79%
    09:00 +15°C° 0 mm 4 mps 761 mmHg 77%
    10:00 +16°C° 0 mm 5 mps 760 mmHg 75%
    11:00 +17°C° 0 mm 5 mps 760 mmHg 74%
    12:00 +17°C° 0 mm 5 mps 759 mmHg 72%
    13:00 +17°C° 0 mm 6 mps 758 mmHg 70%
    14:00 +19°C° 0 mm 6 mps 758 mmHg 68%
    15:00 +19°C° 0 mm 6 mps 757 mmHg 66%
    16:00 +17°C° 0 mm 5 mps 757 mmHg 67%
    17:00 +16°C° 0 mm 5 mps 756 mmHg 68%
    18:00 +17°C° 0 mm 4 mps 756 mmHg 70%
    19:00 +14°C° 0 mm 3 mps 755 mmHg 72%
    20:00 +13°C° 0 mm 3 mps 755 mmHg 75%
    21:00 +13°C° 0 mm 2 mps 755 mmHg 77%
    22:00 +12°C° 0 mm 2 mps 754 mmHg 77%
    23:00 +12°C° 0 mm 2 mps 754 mmHg 77%

    Day after tomorrow, 22 April, Monday

    Time Temperature Precipitation Wind Pressure Humidity
    00:00 +12°C° 0 mm 2 mps 754 mmHg 78%
    01:00 +10°C° 0 mm 2 mps 753 mmHg 79%
    02:00 +10°C° 0 mm 2 mps 753 mmHg 80%
    03:00 +9°C° 0 mm 2 mps 752 mmHg 81%
    04:00 +9°C° 0 mm 2 mps 752 mmHg 83%
    05:00 +9°C° 0 mm 2 mps 752 mmHg 85%
    06:00 +10°C° 0 mm 1 mps 752 mmHg 87%
    07:00 +12°C° 0 mm 2 mps 752 mmHg 79%
    08:00 +13°C° 0 mm 3 mps 752 mmHg 71%
    09:00 +15°C° 0 mm 4 mps 752 mmHg 64%
    10:00 +17°C° 0 mm 4 mps 752 mmHg 59%
    11:00 +19°C° 0 mm 4 mps 751 mmHg 54%
    12:00 +20°C° 0 mm 5 mps 751 mmHg 50%
    13:00 +20°C° 0 mm 5 mps 751 mmHg 50%
    14:00 +20°C° 0 mm 5 mps 750 mmHg 50%
    15:00 +21°C° 0 mm 4 mps 750 mmHg 50%
    16:00 +20°C° 0 mm 4 mps 750 mmHg 55%
    17:00 +19°C° 0 mm 4 mps 750 mmHg 60%
    18:00 +18°C° 0 mm 3 mps 750 mmHg 65%
    19:00 +17°C° 0 mm 3 mps 750 mmHg 70%
    20:00 +14°C° 0 mm 3 mps 750 mmHg 76%
    21:00 +12°C° 0 mm 3 mps 751 mmHg 81%
    22:00 +11°C° 0 mm 3 mps 751 mmHg 81%
    23:00 +11°C° 0 mm 3 mps 750 mmHg 80%

    23 April, Tuesday

    Time Temperature Precipitation Wind Pressure Humidity
    00:00 +10°C° 0 mm 3 mps 750 mmHg 79%
    01:00 +9°C° 0 mm 3 mps 750 mmHg 83%
    02:00 +8°C° 0 mm 3 mps 750 mmHg 88%
    03:00 +7°C° 0 mm 3 mps 750 mmHg 92%
    04:00 +7°C° 0 mm 3 mps 750 mmHg 93%
    05:00 +7°C° 0 mm 3 mps 749 mmHg 93%
    06:00 +8°C° 0 mm 3 mps 749 mmHg 94%
    07:00 +8°C° 0 mm 4 mps 749 mmHg 90%
    08:00 +10°C° 0 mm 4 mps 749 mmHg 86%
    09:00 +12°C° 0 mm 4 mps 749 mmHg 82%
    10:00 +13°C° 0 mm 4 mps 749 mmHg 75%
    11:00 +15°C° 0 mm 5 mps 749 mmHg 69%
    12:00 +17°C° 0 mm 5 mps 749 mmHg 63%
    13:00 +17°C° 0 mm 5 mps 749 mmHg 63%
    14:00 +17°C° 0 mm 5 mps 748 mmHg 63%
    15:00 +17°C° 0 mm 6 mps 748 mmHg 63%
    16:00 +16°C° 0 mm 5 mps 748 mmHg 66%
    17:00 +15°C° 0 mm 5 mps 748 mmHg 68%
    18:00 +14°C° 0 mm 5 mps 748 mmHg 71%
    19:00 +12°C° 0 mm 5 mps 748 mmHg 76%
    20:00 +11°C° 0 mm 4 mps 748 mmHg 81%
    21:00 +8°C° 0 mm 4 mps 749 mmHg 86%
    22:00 +7°C° 0 mm 4 mps 748 mmHg 89%
    23:00 +8°C° 0 mm 3 mps 748 mmHg 91%

    24 April, Wednesday

    Time Temperature Precipitation Wind Pressure Humidity
    00:00 +7°C° 0 mm 3 mps 748 mmHg 93%
    01:00 +7°C° 0 mm 3 mps 748 mmHg 93%
    02:00 +7°C° 0 mm 3 mps 747 mmHg 94%
    03:00 +7°C° 0 mm 3 mps 747 mmHg 94%
    04:00 +7°C° 0 mm 3 mps 747 mmHg 93%
    05:00 +6°C° 0 mm 4 mps 747 mmHg 93%
    06:00 +6°C° 0 mm 4 mps 746 mmHg 92%
    07:00 +7°C° 0 mm 4 mps 746 mmHg 88%
    08:00 +8°C° 0 mm 4 mps 746 mmHg 84%
    09:00 +10°C° 0 mm 4 mps 745 mmHg 80%
    10:00 +12°C° 0 mm 5 mps 745 mmHg 76%
    11:00 +13°C° 0 mm 5 mps 744 mmHg 72%
    12:00 +15°C° 0 mm 5 mps 744 mmHg 68%
    13:00 +15°C° 0.2 mm 5 mps 744 mmHg 72%
    14:00 +14°C° 0.2 mm 5 mps 743 mmHg 77%
    15:00 +14°C° 0.2 mm 5 mps 743 mmHg 81%
    16:00 +14°C° 0.5 mm 5 mps 743 mmHg 83%
    17:00 +13°C° 0.5 mm 4 mps 743 mmHg 86%
    18:00 +13°C° 0.5 mm 4 mps 742 mmHg 88%
    19:00 +12°C° 0.5 mm 4 mps 743 mmHg 87%
    20:00 +10°C° 0.5 mm 4 mps 743 mmHg 87%
    21:00 +8°C° 0.5 mm 4 mps 743 mmHg 87%
    22:00 +9°C° 0.1 mm 3 mps 743 mmHg 87%
    23:00 +8°C° 0.1 mm 3 mps 744 mmHg 87%

    25 April, Thursday

    Time Temperature Precipitation Wind Pressure Humidity
    00:00 +7°C° 0.1 mm 3 mps 744 mmHg 87%
    01:00 +7°C° 0 mm 2 mps 744 mmHg 88%
    02:00 +7°C° 0 mm 2 mps 744 mmHg 89%
    03:00 +6°C° 0 mm 2 mps 744 mmHg 90%
    04:00 +6°C° 0 mm 2 mps 744 mmHg 90%
    05:00 +7°C° 0 mm 2 mps 744 mmHg 91%
    06:00 +7°C° 0 mm 2 mps 744 mmHg 91%
    07:00 +8°C° 0 mm 3 mps 744 mmHg 87%
    08:00 +8°C° 0 mm 4 mps 744 mmHg 83%
    09:00 +9°C° 0 mm 5 mps 744 mmHg 79%
    10:00 +10°C° 0.2 mm 5 mps 744 mmHg 77%
    11:00 +10°C° 0.2 mm 6 mps 744 mmHg 76%
    12:00 +10°C° 0.2 mm 6 mps 744 mmHg 75%
    13:00 +10°C° 0.8 mm 6 mps 745 mmHg 79%
    14:00 +9°C° 0.8 mm 5 mps 745 mmHg 83%
    15:00 +9°C° 0.8 mm 5 mps 745 mmHg 87%
    16:00 +8°C° 0.9 mm 4 mps 745 mmHg 86%
    17:00 +8°C° 0.9 mm 4 mps 746 mmHg 84%
    18:00 +8°C° 0.9 mm 4 mps 746 mmHg 83%
    19:00 +7°C° 0 mm 4 mps 747 mmHg 85%
    20:00 +7°C° 0 mm 3 mps 748 mmHg 88%
    21:00 +5°C° 0 mm 3 mps 749 mmHg 90%
    22:00 +5°C° 0 mm 3 mps 749 mmHg 91%
    23:00 +5°C° 0 mm 3 mps 750 mmHg 92%
    Show more